TimeCDT,TemperatureF,Dew PointF,Humidity,Sea Level PressureIn,VisibilityMPH,Wind Direction,Wind SpeedMPH,Gust SpeedMPH,PrecipitationIn,Events,Conditions,WindDirDegrees,DateUTC
12:56 AM,-9999,-9999,N/A,29.85,10.0,North,18.4,26.5,0.00,,Overcast,350,2013-04-11 05:56:00
1:03 AM,-9999,-9999,N/A,29.84,10.0,North,18.4,26.5,N/A,,Overcast,350,2013-04-11 06:03:00
1:56 AM,-9999,-9999,N/A,29.83,10.0,North,13.8,24.2,N/A,,Overcast,360,2013-04-11 06:56:00
2:36 AM,-9999,-9999,N/A,29.87,10.0,NNW,18.4,26.5,0.00,Rain-Thunderstorm,Light Thunderstorms and Rain,340,2013-04-11 07:36:00
2:51 AM,-9999,-9999,N/A,29.89,10.0,NNW,15.0,24.2,0.00,Rain,Light Rain,330,2013-04-11 07:51:00
2:56 AM,-9999,-9999,N/A,29.89,10.0,NNW,20.7,24.2,0.00,Rain,Light Rain,340,2013-04-11 07:56:00
3:48 AM,-9999,-9999,N/A,29.88,2.0,North,13.8,-,0.28,Rain,Heavy Rain,360,2013-04-11 08:48:00
3:56 AM,-9999,-9999,N/A,29.88,4.0,North,9.2,-,0.35,Rain,Heavy Rain,10,2013-04-11 08:56:00
4:56 AM,-9999,-9999,N/A,29.88,10.0,North,12.7,-,0.01,,Overcast,10,2013-04-11 09:56:00
5:21 AM,-9999,-9999,N/A,29.88,10.0,NNE,16.1,23.0,N/A,Thunderstorm,Thunderstorm,20,2013-04-11 10:21:00
5:36 AM,-9999,-9999,N/A,29.88,10.0,North,13.8,21.9,N/A,,Mostly Cloudy,10,2013-04-11 10:36:00
5:56 AM,-9999,-9999,N/A,29.88,10.0,NNE,13.8,-,N/A,,Mostly Cloudy,30,2013-04-11 10:56:00
6:56 AM,50.7,45.0,81,29.88,10.0,NE,9.2,-,N/A,,Mostly Cloudy,40,2013-04-11 11:56:00
7:56 AM,53.4,45.7,75,29.90,10.0,NNE,10.4,-,N/A,,Scattered Clouds,20,2013-04-11 12:56:00
8:56 AM,57.7,38.1,48,29.95,10.0,North,13.8,-,N/A,,Partly Cloudy,350,2013-04-11 13:56:00
9:56 AM,59.4,39.7,48,29.97,10.0,NNW,15.0,23.0,N/A,,Partly Cloudy,340,2013-04-11 14:56:00
10:56 AM,57.7,36.1,44,29.98,10.0,North,13.8,20.7,N/A,,Clear,360,2013-04-11 15:56:00
11:56 AM,66.4,39.0,37,29.96,10.0,North,12.7,18.4,N/A,,Clear,360,2013-04-11 16:56:00
12:56 PM,65.7,37.8,36,29.92,10.0,North,8.1,-,N/A,,Clear,360,2013-04-11 17:56:00
1:56 PM,68.0,43.0,40,29.90,10.0,Variable,4.6,-,N/A,,Clear,0,2013-04-11 18:56:00
2:56 PM,73.2,40.3,30,29.85,10.0,NNW,9.2,-,N/A,,Clear,340,2013-04-11 19:56:00
3:56 PM,74.7,38.8,27,29.81,10.0,Variable,6.9,-,N/A,,Clear,0,2013-04-11 20:56:00
4:56 PM,75.4,38.5,26,29.78,10.0,East,5.8,-,N/A,,Clear,100,2013-04-11 21:56:00
5:56 PM,75.0,36.1,24,29.77,10.0,Variable,5.8,-,N/A,,Clear,0,2013-04-11 22:56:00
6:56 PM,71.8,43.5,36,29.78,10.0,SE,12.7,-,N/A,,Clear,130,2013-04-11 23:56:00
7:56 PM,67.5,44.6,44,29.79,10.0,SE,12.7,-,N/A,,Clear,130,2013-04-12 00:56:00
8:56 PM,63.9,46.2,53,29.81,10.0,SE,9.2,-,N/A,,Clear,140,2013-04-12 01:56:00
9:56 PM,62.1,46.6,57,29.84,10.0,South,5.8,-,N/A,,Clear,170,2013-04-12 02:56:00
10:56 PM,60.6,46.0,59,29.88,10.0,SSW,5.8,-,N/A,,Clear,200,2013-04-12 03:56:00
11:56 PM,60.6,46.4,59,29.89,10.0,South,4.6,-,N/A,,Clear,190,2013-04-12 04:56:00